Topeka, KS

9:22 AM CDT on June 29, 2017 (GMT -0500)
Billard Municipal

Weather History for KTOP - June, 2013

Change the Weather History Date:

Friday, June 14, 2013

  Actual Average Record
Temperature  
Mean Temperature 81 °F 74 °F  
Max Temperature 94 °F 85 °F 100 °F (1936)
Min Temperature 67 °F 64 °F 47 °F (1942)
Degree Days  
Heating Degree Days 0 0  
Month to date heating degree days 5 6  
Since 1 June heating degree days 5 6  
Since 1 July heating degree days 4901 5019  
Cooling Degree Days 16 9  
Month to date cooling degree days 97 105  
Year to date cooling degree days 242 231  
Since 1 June cooling degree days 97 105  
Growing Degree Days 30 (Base 50)    
Moisture  
Dew Point 68 °F    
Average Humidity 67    
Maximum Humidity 87    
Minimum Humidity 46    
Precipitation  
Precipitation 0.00 in 0.18 in 1.22 in (1958)
Month to date precipitation 0.84 2.53  
Year to date precipitation 15.17 15.64  
Snow  
Snow 0.00 in 0.00 in 0.00 in ()
Month to date snowfall 0.0 0.0  
Year to date snowfall 24.2 11.3  
Since 1 July snowfall 29.6 17.8  
Snow Depth 0.00 in    
Sea Level Pressure  
Sea Level Pressure 29.91 in    
Wind  
Wind Speed 11 mph (SE)    
Max Wind Speed 23 mph    
Max Gust Speed 30 mph    
Visibility 10 miles    
Events      
T = Trace of Precipitation, MM = Missing Value Source: NWS Daily Summary

Daily Weather History Graph

Daily Weather History Graph

Search for Another Location

Airport or City:

Trip Planner

Search our weather history database for the weather conditions in past years. The results will help you decide how hot, cold, wet, or windy it might be!

Date:

Astronomy

Jun. 14, 2013 Rise Set
Actual Time 5:56 AM CDT 8:49 PM CDT
Civil Twilight 5:23 AM CDT 9:21 PM CDT
Nautical Twilight 4:43 AM CDT 10:02 PM CDT
Astronomical Twilight 3:56 AM CDT 10:49 PM CDT
Moon 11:29 AM CDT (6/14) No Moon Set
Length of Visible Light 15h 58m
Length of Day
14h 53m
Waxing Crescent, 30% of the Moon is Illuminated
Jun 14
Waxing Crescent
Jun 16
First Quarter
Jun 23
Full
Jun 29
Last Quarter
Jul 8
New

Hourly Weather History & Observations

Time (CDT) Temp. Heat Index Dew Point Humidity Pressure Visibility Wind Dir Wind Speed Gust Speed Precip Events Conditions
12:53 AM 69.1 °F - 62.1 °F 78% 29.99 in 10.0 mi East 3.5 mph - N/A   Clear
1:53 AM 69.1 °F - 63.0 °F 81% 29.99 in 10.0 mi East 5.8 mph - N/A   Clear
2:53 AM 68.0 °F - 63.0 °F 84% 29.99 in 10.0 mi East 4.6 mph - N/A   Clear
3:53 AM 66.9 °F - 63.0 °F 87% 29.97 in 10.0 mi East 6.9 mph - N/A   Clear
4:53 AM 68.0 °F - 63.0 °F 84% 29.95 in 10.0 mi East 4.6 mph - N/A   Clear
5:53 AM 66.9 °F - 63.0 °F 87% 29.97 in 10.0 mi SE 4.6 mph - N/A   Mostly Cloudy
6:53 AM 69.1 °F - 64.0 °F 84% 29.99 in 10.0 mi East 4.6 mph - N/A   Partly Cloudy
7:53 AM 73.0 °F - 64.9 °F 76% 29.98 in 10.0 mi ESE 8.1 mph - N/A   Clear
8:53 AM 75.9 °F - 66.0 °F 71% 29.98 in 10.0 mi SE 10.4 mph - N/A   Clear
9:53 AM 79.0 °F - 66.9 °F 66% 29.97 in 10.0 mi SE 10.4 mph - N/A   Clear
10:53 AM 82.9 °F 85.4 °F 66.9 °F 58% 29.94 in 10.0 mi SE 16.1 mph - N/A   Clear
11:53 AM 84.9 °F 88.2 °F 68.0 °F 57% 29.93 in 10.0 mi SE 12.7 mph - N/A   Clear
12:53 PM 88.0 °F 93.8 °F 71.1 °F 57% 29.91 in 10.0 mi SE 17.3 mph - N/A   Clear
1:53 PM 91.0 °F 98.2 °F 72.0 °F 53% 29.89 in 10.0 mi SE 16.1 mph 24.2 mph N/A   Clear
2:53 PM 93.0 °F 101.9 °F 73.0 °F 52% 29.87 in 10.0 mi SE 16.1 mph 20.7 mph N/A   Partly Cloudy
3:53 PM 93.9 °F 102.1 °F 72.0 °F 49% 29.84 in 10.0 mi SE 21.9 mph 28.8 mph N/A   Clear
4:53 PM 93.9 °F 100.8 °F 71.1 °F 47% 29.83 in 10.0 mi South 15.0 mph 21.9 mph N/A   Clear
5:53 PM 93.9 °F 100.3 °F 70.0 °F 46% 29.82 in 10.0 mi South 15.0 mph 21.9 mph N/A   Clear
6:53 PM 93.0 °F 100.1 °F 71.1 °F 49% 29.81 in 10.0 mi South 12.7 mph - N/A   Clear
7:53 PM 90.0 °F 96.9 °F 72.0 °F 55% 29.82 in 10.0 mi SE 11.5 mph - N/A   Clear
8:53 PM 87.1 °F 93.6 °F 72.0 °F 61% 29.83 in 10.0 mi SE 11.5 mph - N/A   Clear
9:53 PM 86.0 °F 92.2 °F 72.0 °F 63% 29.87 in 10.0 mi SSE 9.2 mph - N/A   Clear
10:53 PM 84.9 °F 90.1 °F 71.1 °F 63% 29.88 in 10.0 mi SSE 12.7 mph - N/A   Clear
11:53 PM 82.9 °F 87.5 °F 71.1 °F 67% 29.87 in 10.0 mi SSE 11.5 mph - N/A   Clear